Flag for U.S.A. Weather past 2 weeks in Vallejo, California, U.S.A.

Now
56 °F

Clear.


Feels Like: 53 °F
Forecast: 58 / 79 °F
Wind: 10 mph from West

Location: Napa County Airport

Current Time: Jul 28, 2014 at 4:49:13 AM

Latest Report: Jul 28, 2014 at 3:54 AM


Visibility: 10 mi

Pressure: 29.95 "Hg

Humidity: 97%

Dew point: 55 °F

Location of VallejoLocation

Historic Weather in Vallejo — Graph

°F

Vallejo temperature yesterday

Maximum temperature yesterday: 84 °F (at 1:54 PM)
Minimum temperature yesterday: 60 °F (at 4:54 AM)
Average temperature yesterday: 69 °F

Past Weeks' High & Low Weather Summary

 TemperatureHumidityPressure
High95 °F (Jul 25, 2:54 PM)100% (Jul 20, 3:54 AM)30.10 "Hg (Jul 20, 3:54 AM)
Low50 °F (Jul 24, 5:54 AM)16% (Jul 25, 2:54 PM)29.78 "Hg (Jul 25, 4:54 PM)
Average67 °F75%29.93 "Hg
* Reported Jul 13 3:02 AM — Jul 28 3:54 AM, Vallejo, Weather by CustomWeather, © 2014

Note: Actual official high and low records may vary slightly from our data, if they occured in-between our weather recording intervals... More about our weather records

Advertising

Vallejo weather history for previous 24 hours

 ConditionsComfort  
Time TempWeatherWind HumidityBarometerVisibility
3:54 AM
Jul 28
56 °FClear.10 mph97%29.95 "Hg10 mi
2:54 AM56 °FClear.10 mph93%29.95 "Hg10 mi
1:54 AM57 °FClear.5 mph90%29.96 "Hg10 mi
12:54 AM60 °FClear.8 mph90%29.96 "Hg10 mi
11:54 PM
Jul 27
61 °FClear.14 mph90%29.96 "Hg10 mi
10:54 PM62 °FClear.12 mph90%29.95 "Hg10 mi
9:54 PM63 °FClear.15 mph87%29.93 "Hg10 mi
8:54 PM66 °FSunny.12 mph81%29.90 "Hg10 mi
7:54 PM69 °FSunny.12 mph70%29.89 "Hg10 mi
6:54 PM74 °FSunny.15 mph60%29.88 "Hg10 mi
5:54 PM79 °FSunny.10 mph50%29.87 "Hg10 mi
4:54 PM83 °FSunny.10 mph43%29.88 "Hg10 mi
3:54 PM79 °FSunny.15 mph48%29.89 "Hg10 mi
2:54 PM84 °FSunny.12 mph40%29.90 "Hg10 mi
1:54 PM84 °FSunny.12 mph37%29.91 "Hg10 mi
12:54 PM80 °FSunny.8 mph44%29.93 "Hg10 mi
11:54 AM75 °FSunny.10 mph54%29.95 "Hg10 mi
10:54 AM72 °FSunny.6 mph59%29.96 "Hg10 mi
9:54 AM64 °FScattered clouds.No wind84%29.97 "Hg10 mi
8:54 AM62 °FPartly sunny.No wind83%29.96 "Hg10 mi
7:54 AM62 °FPartly sunny.7 mph80%29.94 "Hg10 mi
6:54 AM61 °FOvercast.3 mph87%29.93 "Hg10 mi
5:54 AM60 °FClear.5 mph93%29.93 "Hg10 mi
4:54 AM60 °FClear.6 mph90%29.91 "Hg10 mi
Weather by CustomWeather, © 2014

See weather overviewHow to use our weather pages